Wind_Speed
13 11 14 15 14 13 14 13 13 13 16 17 18 19 19 18 18 19 21 14 11 12 6 3 4 2 5 4 4 5 4 3 7 7 3 12 5 7 5 8 6 7 6 8 16
14 14 12 15 14 13 12 13 14 13 15 16 17 18 17 16 17 22 21 11 10 12 8 3 3 1 3 4 4 3 3 7 6 6 4 10 6 13 7 6 4 6 8 15 17
14 15 14 12 14 13 12 12 13 14 14 15 15 15 14 12 13 20 18 17 10 10 13 5 1 1 3 5 4 3 4 5 5 7 7 9 6 7 8 4 10 13 17 20 20
15 13 13 13 13 13 12 12 13 13 14 13 13 13 11 7 6 4 10 15 13 11 12 9 4 2 2 5 4 2 3 3 7 8 7 9 10 5 10 3 4 9 18 23 22
15 10 11 13 13 12 12 11 12 12 12 13 12 11 9 8 15 1 7 15 13 13 10 13 7 3 3 3 6 3 3 5 7 8 8 11 3 2 8 7 6 16 20 22 22
13 11 10 11 12 13 12 11 12 11 12 13 11 10 8 6 9 6 7 10 12 15 14 12 6 4 4 1 1 5 7 7 4 5 6 3 1 1 5 8 14 19 22 22 22
11 11 13 12 13 13 13 11 12 12 12 12 9 10 11 20 8 7 8 9 12 13 15 13 7 5 2 3 5 10 5 2 2 4 2 4 2 6 5 14 18 21 22 23 23
9 13 15 14 12 13 13 12 12 13 11 9 7 9 10 7 12 9 9 9 11 11 8 12 11 3 2 7 4 3 4 3 1 5 1 3 5 2 9 18 20 22 23 24 24
10 13 16 15 13 12 13 12 12 11 8 7 6 6 8 6 10 9 9 9 11 10 9 12 10 5 5 5 2 4 3 3 3 3 3 3 4 2 9 18 18 22 24 24 24
6 6 10 11 11 11 10 11 9 5 6 5 7 5 6 6 10 11 9 10 7 11 9 7 6 3 2 2 5 3 1 2 4 2 1 2 10 5 7 18 21 22 25 25 27
4 3 4 7 8 8 7 5 3 2 11 9 2 5 3 7 11 10 11 10 11 6 4 2 3 5 6 4 3 4 3 3 1 1 1 3 7 13 10 15 17 22 26 28 29
2 1 5 5 6 6 6 3 1 2 7 17 12 10 4 4 6 8 10 6 5 4 5 3 4 3 5 4 3 3 3 3 1 2 2 3 12 10 2 7 16 23 25 30 28
4 2 3 4 2 3 6 2 7 9 3 1 4 2 4 3 4 4 7 5 4 3 3 4 2 6 4 4 5 2 3 3 3 1 2 5 6 3 2 3 5 9 17 25 31
8 6 3 4 2 1 2 4 7 4 3 4 1 2 2 6 5 5 5 3 3 5 6 3 2 4 4 3 4 3 1 3 3 2 2 3 4 3 4 4 7 11 6 13 26
8 8 6 5 0 2 2 8 5 1 4 2 0 2 2 4 7 4 5 3 4 4 4 2 2 3 3 2 1 3 3 3 2 3 1 2 1 4 4 5 9 11 11 4 14
9 9 6 4 5 2 7 5 2 2 2 0 1 3 3 4 3 3 2 5 5 5 5 2 2 3 2 3 3 7 4 5 3 2 0 1 2 2 3 5 9 13 12 3 7
8 8 7 4 2 6 9 2 3 3 0 1 1 3 3 2 3 3 3 4 3 4 1 4 3 3 3 4 3 3 4 2 2 1 3 1 1 3 5 5 6 12 10 8 6
9 8 7 6 9 10 5 2 2 2 2 2 2 3 3 3 3 2 2 3 5 4 3 5 2 2 4 2 4 2 4 4 3 2 2 1 4 1 3 7 11 12 13 11 9
8 7 8 6 6 4 2 3 2 1 2 5 2 3 1 1 4 4 3 3 1 2 4 4 1 1 4 1 1 3 2 2 5 2 1 2 3 2 3 7 13 16 18 15 12
8 6 8 6 3 3 3 4 2 1 1 1 3 3 4 2 3 3 2 1 2 2 1 4 3 1 1 2 6 1 5 2 2 2 3 2 3 3 1 5 7 13 17 16 14
7 4 4 4 2 2 2 4 2 1 1 1 2 3 3 4 3 2 3 1 2 2 3 3 2 1 1 1 5 2 1 5 3 1 2 2 3 3 2 1 3 6 11 16 16
5 1 3 5 0 1 1 2 3 2 3 2 3 2 3 2 3 2 3 3 3 1 3 0 3 2 1 1 1 2 3 3 3 3 1 0 4 1 3 2 5 8 10 11 12
4 3 4 7 2 2 3 1 1 2 3 3 2 3 3 3 3 2 3 2 2 2 3 3 2 2 2 2 2 1 2 3 4 2 5 3 2 4 3 5 6 8 7 8 8
3 0 3 6 3 4 3 2 2 1 1 3 2 2 3 3 5 4 2 2 2 3 5 3 3 3 3 2 2 2 3 3 3 2 4 5 2 4 1 4 4 4 4 4 7
6 3 4 2 3 4 4 3 3 2 1 2 3 2 3 3 2 3 2 2 3 1 3 3 2 2 2 2 2 3 4 6 7 4 6 2 6 3 4 6 3 1 1 4 9
5 4 4 3 3 5 3 6 7 2 2 1 5 2 1 4 4 7 6 4 3 1 2 1 3 3 2 0 0 4 6 5 5 4 7 3 7 4 7 7 3 1 5 8 11
12 5 2 2 3 4 5 6 8 8 1 2 5 5 4 1 5 8 5 9 7 5 3 2 4 2 2 3 4 6 4 5 3 2 4 4 4 6 4 5 3 6 6 8 14
Wind_Direction
274 275 283 283 280 283 284 285 283 279 282 290 286 286 289 269 261 259 254 238 258 255 264 251 210 234 207 195 177 148 81 175 189 162 190 160 142 171 173 151 175 192 186 180 173
277 267 268 281 271 274 280 281 281 279 282 289 289 288 287 280 272 254 235 236 243 246 235 253 173 208 199 190 183 125 133 206 184 180 172 169 176 163 158 158 190 191 187 168 171
286 267 262 265 269 270 278 282 282 281 286 290 292 289 285 288 291 258 243 234 226 229 223 234 339 327 228 188 180 162 171 161 167 164 152 151 148 173 156 202 201 198 180 173 173
297 276 265 265 265 269 273 280 280 285 288 291 295 289 280 267 211 228 223 214 207 211 205 197 225 333 234 187 149 127 72 137 142 152 143 160 149 181 202 211 207 204 184 176 178
291 274 272 263 258 263 271 275 279 286 288 292 294 288 277 247 232 322 186 187 200 200 189 186 199 230 234 184 133 102 136 95 130 138 125 141 148 228 233 230 204 173 177 179 181
292 268 263 260 255 263 269 278 281 286 290 290 289 281 263 255 225 231 202 196 199 198 182 177 190 191 275 309 85 135 120 127 136 134 143 137 175 215 220 195 173 176 181 186 189
283 268 247 258 253 260 268 275 280 286 289 283 278 269 253 230 184 194 205 199 199 199 191 185 172 170 254 128 135 125 103 83 145 174 132 140 252 234 212 181 177 182 186 189 190
262 265 245 252 259 262 271 276 283 284 281 269 263 259 253 244 227 190 193 194 187 185 180 185 200 184 225 134 66 95 59 159 157 163 145 167 253 236 193 185 189 191 192 194 195
249 257 242 241 255 265 271 279 283 277 264 249 252 239 258 218 203 183 180 185 170 164 156 169 157 178 169 125 65 12 169 196 304 202 131 191 258 174 191 197 200 201 200 198 198
270 250 232 248 259 268 276 281 273 267 234 228 232 262 245 195 173 165 167 160 154 160 140 155 162 118 59 123 210 178 186 259 247 158 143 182 261 248 215 212 217 211 208 204 203
222 214 234 254 263 263 261 249 236 226 222 208 215 260 80 144 146 163 155 150 143 148 140 73 122 191 198 154 160 120 130 234 222 74 234 241 271 276 246 229 228 223 217 212 212
164 184 229 223 241 241 227 225 268 55 295 247 253 277 269 152 122 139 156 158 141 128 134 57 227 195 164 165 138 142 165 247 331 69 200 350 288 288 249 250 240 235 226 219 213
142 114 234 173 183 218 223 250 318 310 255 308 218 112 149 181 104 120 155 134 114 113 123 152 213 149 123 122 135 136 177 185 215 347 78 324 289 348 9 315 305 270 252 234 216
126 121 160 139 140 235 246 332 329 318 76 312 87 157 164 150 58 102 128 124 57 152 147 99 347 108 103 124 127 177 253 127 104 62 270 358 285 306 342 322 19 9 272 236 220
142 139 161 180 261 191 299 323 316 278 95 231 348 121 101 136 141 43 112 117 128 124 118 180 91 106 97 110 126 144 66 74 80 101 9 26 185 277 351 336 345 354 2 243 214
168 162 183 243 271 314 327 309 198 44 121 61 165 154 71 26 61 104 86 92 97 80 47 87 51 53 119 59 59 143 82 52 59 90 224 292 187 302 357 309 311 333 3 42 182
187 189 206 231 309 321 330 321 3 87 281 234 166 127 115 130 62 49 32 31 93 99 120 32 5 353 77 86 37 78 68 321 335 14 226 11 176 281 305 328 307 321 8 67 93
194 221 228 283 301 307 307 176 36 195 216 87 84 46 87 90 23 53 76 69 31 72 104 155 281 15 356 78 166 113 155 167 242 221 287 69 237 141 304 3 40 57 70 77 72
208 224 265 278 304 316 295 19 241 330 309 125 70 77 31 156 131 93 55 140 128 52 132 132 210 345 48 62 44 164 162 139 106 53 263 269 276 315 18 44 35 47 62 64 67
222 237 267 265 275 296 71 237 222 242 299 170 152 160 164 197 87 95 175 266 115 70 75 176 117 348 95 98 46 148 135 109 37 204 252 271 271 185 122 27 26 45 53 66 68
199 255 248 228 263 270 181 231 274 280 267 158 172 114 129 149 116 118 159 356 34 61 72 124 94 241 101 193 181 103 107 57 110 127 207 283 259 211 182 67 68 60 75 76 71
194 259 224 197 125 48 185 216 335 322 7 9 97 102 130 134 93 100 140 52 16 51 108 26 125 161 133 66 90 127 155 145 141 195 78 133 269 92 88 82 130 104 93 77 66
222 237 202 189 180 264 274 287 45 351 22 26 73 51 42 87 92 73 90 23 40 73 139 178 41 77 16 17 14 198 156 105 98 98 191 166 254 157 61 92 108 109 91 83 59
216 152 180 195 169 144 173 235 225 22 50 48 114 74 90 80 26 144 117 31 45 88 78 93 98 151 186 147 132 189 181 161 133 154 168 229 238 194 221 152 137 112 103 59 13
217 225 179 209 242 169 157 148 165 209 70 53 50 79 138 113 85 117 110 98 49 61 57 92 128 175 226 223 216 235 204 180 198 186 204 237 210 193 177 171 166 168 315 330 334
209 175 173 161 169 137 168 216 177 196 155 214 130 127 91 145 174 188 139 188 179 109 94 12 165 175 177 116 300 260 232 219 222 215 254 261 280 213 166 176 206 287 314 329 320
214 221 201 171 149 132 214 188 203 141 43 78 151 107 77 64 124 105 117 112 130 139 134 107 133 102 262 342 318 287 234 192 189 175 162 199 224 174 184 207 251 320 314 314 321
Height
1526 1526 1527 1526 1527 1527 1526 1526 1525 1526 1525 1525 1524 1523 1522 1521 1522 1523 1522 1524 1526 1526 1527 1527 1527 1527 1528 1528 1529 1529 1539 1547 1545 1548 1541 1543 1546 1549 1550 1551 1552 1552 1552 1553 1555
1524 1524 1525 1525 1525 1525 1525 1525 1524 1524 1524 1523 1522 1522 1521 1520 1518 1517 1520 1521 1523 1524 1526 1526 1525 1526 1527 1527 1529 1529 1537 1537 1535 1536 1538 1541 1543 1546 1549 1550 1551 1551 1551 1552 1554
1521 1521 1522 1523 1523 1523 1523 1523 1522 1522 1522 1521 1521 1520 1520 1519 1518 1513 1516 1519 1520 1522 1524 1525 1525 1526 1527 1526 1527 1528 1531 1531 1533 1534 1536 1539 1542 1544 1545 1548 1545 1546 1548 1551 1553
1519 1518 1519 1520 1520 1521 1521 1521 1521 1521 1521 1520 1519 1518 1519 1520 1520 1510 1512 1515 1517 1520 1521 1524 1525 1526 1527 1526 1525 1528 1530 1530 1533 1534 1536 1538 1540 1543 1543 1542 1543 1544 1546 1549 1552
1516 1516 1517 1517 1518 1519 1519 1519 1519 1519 1519 1518 1517 1517 1517 1517 1510 1510 1511 1513 1516 1518 1519 1522 1525 1527 1527 1525 1524 1527 1530 1532 1533 1534 1535 1537 1540 1541 1539 1540 1541 1543 1546 1549 1551
1514 1514 1515 1515 1516 1517 1517 1517 1517 1517 1517 1517 1516 1515 1516 1516 1509 1510 1511 1512 1514 1516 1518 1521 1523 1526 1528 1524 1524 1527 1528 1532 1533 1535 1535 1537 1540 1540 1538 1539 1541 1543 1545 1548 1550
1512 1512 1513 1514 1515 1515 1515 1516 1516 1515 1515 1515 1514 1514 1512 1505 1507 1508 1510 1511 1513 1515 1516 1519 1522 1525 1527 1525 1527 1527 1530 1533 1534 1535 1536 1537 1541 1538 1536 1538 1540 1543 1545 1547 1549
1510 1510 1511 1512 1513 1513 1513 1514 1513 1513 1513 1513 1512 1513 1506 1504 1505 1506 1509 1510 1512 1514 1516 1518 1521 1524 1525 1526 1527 1531 1531 1538 1534 1535 1537 1538 1540 1533 1534 1536 1538 1540 1542 1545 1547
1507 1507 1508 1510 1510 1511 1512 1512 1512 1511 1511 1511 1512 1512 1504 1502 1503 1505 1508 1509 1511 1514 1516 1518 1521 1524 1527 1527 1534 1536 1537 1540 1536 1535 1535 1538 1536 1533 1534 1535 1536 1538 1540 1542 1545
1505 1505 1506 1508 1509 1510 1511 1511 1510 1509 1510 1510 1511 1513 1501 1501 1502 1504 1507 1508 1510 1513 1515 1518 1520 1523 1525 1527 1538 1536 1538 1540 1539 1536 1536 1539 1534 1531 1532 1533 1533 1535 1537 1539 1542
1504 1505 1506 1508 1509 1509 1510 1510 1511 1511 1508 1503 1503 1500 1498 1501 1502 1504 1506 1507 1509 1512 1515 1516 1520 1525 1523 1525 1526 1529 1533 1538 1535 1534 1536 1536 1535 1527 1529 1529 1530 1531 1532 1535 1537
1504 1505 1506 1507 1509 1509 1509 1508 1508 1510 1505 1501 1501 1500 1499 1500 1502 1504 1506 1508 1509 1515 1516 1521 1522 1520 1521 1525 1528 1531 1535 1537 1535 1536 1537 1537 1531 1524 1525 1525 1525 1526 1527 1530 1535
1504 1506 1507 1507 1508 1508 1508 1509 1508 1507 1505 1500 1499 1498 1501 1502 1502 1504 1505 1506 1509 1514 1516 1520 1520 1518 1520 1525 1529 1533 1536 1538 1537 1538 1538 1539 1532 1526 1525 1525 1523 1522 1523 1526 1530
1505 1506 1508 1508 1510 1508 1509 1509 1508 1506 1508 1503 1499 1502 1502 1501 1503 1503 1504 1507 1509 1516 1516 1518 1517 1518 1522 1526 1527 1535 1533 1533 1536 1540 1544 1541 1544 1531 1528 1524 1523 1521 1520 1521 1524
1506 1506 1508 1508 1509 1509 1510 1508 1507 1507 1521 1503 1500 1501 1502 1503 1504 1505 1505 1506 1511 1512 1515 1522 1521 1522 1525 1527 1526 1533 1534 1537 1541 1545 1545 1547 1547 1528 1530 1526 1522 1522 1520 1520 1522
1507 1506 1508 1508 1508 1509 1508 1507 1508 1513 1516 1504 1501 1501 1502 1502 1504 1505 1505 1507 1508 1512 1515 1521 1521 1523 1526 1529 1528 1533 1537 1544 1549 1550 1552 1549 1548 1533 1534 1533 1526 1522 1521 1520 1522
1507 1507 1507 1508 1508 1508 1507 1507 1513 1513 1503 1506 1502 1500 1502 1506 1506 1506 1510 1513 1515 1523 1524 1524 1527 1525 1525 1530 1532 1534 1540 1549 1548 1550 1547 1550 1551 1534 1534 1532 1531 1526 1523 1522 1524
1507 1508 1508 1508 1507 1506 1506 1510 1512 1505 1503 1500 1502 1501 1504 1503 1508 1510 1513 1517 1518 1520 1532 1532 1535 1529 1529 1530 1532 1537 1538 1545 1547 1549 1549 1552 1545 1535 1534 1533 1530 1527 1525 1526 1527
1507 1507 1507 1507 1506 1505 1505 1511 1508 1503 1502 1503 1503 1507 1509 1507 1510 1513 1518 1522 1522 1521 1524 1531 1533 1530 1530 1530 1532 1539 1541 1544 1554 1565 1556 1547 1540 1533 1534 1533 1531 1529 1528 1529 1529
1507 1507 1506 1505 1505 1505 1506 1508 1505 1502 1501 1501 1506 1507 1512 1509 1511 1512 1517 1521 1521 1521 1521 1527 1535 1533 1532 1531 1534 1533 1539 1544 1550 1548 1549 1545 1545 1531 1534 1534 1535 1533 1532 1531 1531
1507 1507 1504 1504 1505 1505 1510 1508 1503 1502 1502 1502 1503 1505 1508 1509 1512 1514 1519 1522 1521 1522 1522 1526 1529 1537 1533 1535 1536 1540 1541 1549 1549 1554 1543 1545 1534 1535 1535 1537 1537 1537 1535 1535 1534
1505 1506 1502 1503 1506 1508 1508 1505 1503 1502 1501 1501 1501 1503 1506 1508 1512 1515 1519 1522 1523 1524 1525 1529 1534 1538 1536 1537 1536 1537 1539 1541 1542 1550 1564 1559 1539 1535 1536 1537 1536 1536 1536 1536 1536
1503 1502 1502 1503 1507 1508 1505 1504 1503 1503 1503 1501 1503 1503 1504 1510 1514 1519 1522 1525 1524 1524 1526 1528 1536 1540 1536 1539 1537 1537 1539 1545 1550 1554 1555 1545 1532 1536 1537 1537 1537 1537 1537 1536 1536
1501 1502 1501 1501 1501 1502 1504 1503 1504 1503 1503 1502 1504 1504 1506 1512 1515 1521 1523 1525 1525 1525 1526 1527 1539 1535 1537 1534 1537 1538 1539 1543 1542 1547 1544 1540 1533 1534 1536 1537 1537 1537 1536 1536 1535
1498 1497 1497 1502 1500 1500 1502 1503 1504 1504 1503 1503 1505 1505 1507 1514 1516 1521 1524 1526 1526 1527 1527 1529 1534 1538 1537 1538 1538 1536 1534 1539 1539 1537 1533 1530 1536 1532 1534 1536 1536 1535 1535 1534 1533
1494 1494 1496 1497 1497 1500 1501 1503 1502 1503 1503 1504 1505 1507 1507 1511 1511 1518 1520 1523 1522 1527 1529 1531 1537 1537 1536 1539 1539 1536 1533 1535 1537 1535 1535 1536 1533 1531 1531 1532 1533 1533 1533 1532 1531
1490 1491 1493 1497 1498 1500 1498 1497 1498 1499 1504 1503 1504 1508 1511 1512 1512 1513 1515 1517 1518 1524 1529 1531 1536 1538 1533 1542 1537 1531 1525 1529 1528 1530 1529 1530 1526 1529 1530 1531 1532 1532 1532 1530 1529